METEOR 2-17

导读 | 豆包AI

METEOR 2-17是独联体(CIS)发射的第二代“流星”极轨业务气象卫星,于1988年1月30日发射入轨,属于苏联“流星二号”气象卫星系列。该卫星主要用于获取全球云层覆盖、地球辐射等气象数据,搭载可见光红外相机、多通道扫描辐射计等载荷,可为气象预报与大气研究提供基础观测资料,和同系列卫星共同支撑全球气象监测网络。

Basic Information
目录编号:
18820
目录名称:
METEOR 2-17
国际标识:
1988-005A
轨道中心:
EARTH
卫星名称:
METEOR 2-17
卫星全名:
--
卫星状态:
在轨 (已飞行13969 天)
发射日期:
1988-01-30 UTC
国别 :
俄罗斯(独联体) (CIS)
星等 :
--
Orbit Information
数据来源 国际轨道数据 AOE轨道数据
星历时间 2026-04-29T03:00:17+0800
5小时前
查看轨道信息
2026-04-26T23:00:00+0800
2天前
查看轨道信息
半长轴 7322.028km 7322.027km
偏心率 0.0015654 0.0015366
轨道倾角 82.545° 82.546°
近地点辐角 215.586° 221.803°
升交点赤经 3.025° 4.751°
平近点角 213.261° 204.034°
近地点 932.429km 932.638km
远地点 955.353km 955.142km
周期 103.922分钟 103.922分钟
每日圈数 13.856569 13.856573
Detailed Information
使用方式:
暂无
2D Orbit Map
3D Orbit Map
Orbit Altitude Analysis Chart
Orbit Inclination Analysis Chart
Orbit Comprehensive Analysis Chart
View Comprehensive Chart